COSMOS 1275 DEB, 13053

Orbit data source: Space-Track

COSMOS 1275 DEB, 13053 is space debris in LEO originally from a launch on Thu, 04 Jun 1981 UTC launched from the Plesetsk Missile And Space Complex (PKMTR). Debris objects in space refer to the collection of defunct objects orbiting the Earth. Examples of debris include non-operational satellites, rocket bodies, and fragments generated from explosions, collisions, or faulty payload assembly.

Loading next visibility...
Identifier
13053, 1981-053EY
Orbit
LEO
Country
Flag of CISCIS
Related business
Manufacturer
Unknown
Mission
Spacecraft
Bus & Motor
Unknown
Mass
Unknown
Launch date (UTC)
1981-06-04 (45 years ago)
Launch vehicle
Unknown
Launch site
Plesetsk Missile And Space Complex (PKMTR)
Object type
Payload
Rocket body
Debris
Shape & HBR
Unknown shape, 0.1 m
Radar Cross Section
Small (<0.1 m²)

Expand to show TLE details & history
Last TLE update: 15 hours ago

TLE from 15 hours ago
0 COSMOS 1275 DEB
1 13053U 81053EY  26118.98407454  .00001015  00000-0  10528-2 0  9993
2 13053  83.0728  94.7365 0112308 221.0776 202.1736 13.72074912216765
Epoch: 2026-04-28T23:37Z
TLE epoch observation values (Epoch: 2026-04-28T23:37:04.040Z)
Latitude
62.05886°
Longitude
-103.30884°
Altitude
1,079.567 km
Speed
7.28 km/s
True Right ascension
07h 11m 38s
True Declination
61° 55' 21"
Sunlit
Object was in daylight at epoch
Visualization orbit readout
Latitude
Unknown
Longitude
Unknown
Altitude
Unknown
Speed
Unknown
Apparent Right ascension
Unknown
Apparent Declination
Unknown
Sunlit
N/A
Visualization observer readout
Local Sidereal Time
22:02:24
Azimuth
Unknown
Elevation
Unknown
Doppler factor
Unknown
Orbital elements
Apogee altitude
1,072.021 km
Perigee altitude
906.537 km
Semi-major axis
7,367.416 km
Eccentricity
0.01123
Inclination
83.0728°
RAAN
94.7365°
Arg. of periapsis
221.0776°
True anomaly
201.69413°
Mean anomaly
202.1736°
Eccentric anomaly
201.93324°
Mean motion
3.43218 °/min
Orbital period
104.89 mins
BSTAR
0.0010528
Loading maneuver chart data...
Computing Atmospheric mass density...
Loading historical data...
Loading historical data...
Loading historical data...
Loading historical data...
Loading historical data...
Loading historical data...
Loading historical data...

Documentation

Showing up to 5 results
|